Location: Unspecified
(0.0000°N, 0.0000°E)
Time: 11:47:40
(UTC+01:00)

Centaur D-1AR AC-41 - Visible Passes

Search period start: 13 February 2016 00:00
Search period end: 23 February 2016 00:00
Orbit: 608 x 36232 km, 21.9° (Epoch: 11 February)

Date Brightness Start Highest point End Pass type
(mag) Time Alt. Az. Time Alt. Az. Time Alt. Az.
13 Feb 9.6 21:32:56 17° ENE 00:10:36 31° E 01:34:43 10° E visible
15 Feb 9.5 00:55:14 10° WNW 02:42:49 35° WNW 07:04:55 10° W visible
15 Feb 8.0 22:04:39 10° WNW 00:57:26 65° NNW 08:13:29 10° SE visible
16 Feb 8.0 19:28:04 10° WNW 19:48:22 56° N 05:41:12 10° ESE visible
17 Feb 7.4 16:55:54 10° W 01:27:34 54° E 03:02:22 10° ESE visible
18 Feb 9.9 21:32:39 10° E 22:52:15 15° E 23:44:06 10° E visible
19 Feb 10.0 02:50:29 10° WNW 03:50:22 15° WNW 05:18:34 10° WNW visible
19 Feb 7.1 23:25:56 10° WNW 01:31:25 50° NW 09:26:22 10° SSE visible
20 Feb 8.5 20:43:47 10° WNW 02:56:01 67° WNW 06:55:32 10° SE visible
21 Feb 7.2 18:09:34 10° W 18:21:23 55° N 04:21:20 10° ESE visible
